STARLINK-34702 (64908 NORAD) Tracking and Keplerian Element Data

This shows tracking and keplerian element data for the satellite.

Feedback or suggestion? Click here.




ElementValue
Catalog64908
NameSTARLINK-34702
Epoch Orbit2379
Epoch Day353.43722928
Epoch Year2025
RAAN1.4967
Inclination53.16
Eccentricity0.0001306
Argument of Perigee67.9164
Mean Anonmoly292.1979
Mean Motion15.39615554
Decay Rate0.00040278
L11 64908U 25157E 25353.43722928 .00040278 00000+0 10118-2 0 9995
L22 64908 53.1600 1.4967 0001306 67.9164 292.1979 15.39615554 23798



Live tracking and technical data element details for STARLINK-34702 (NORAD 64908). STARLINK-34702 can be tracked NOW for your location showing map with azimuth and elevation plus other details from your city location.







IsCatalogInMostPopularTable: catalog: 64908, numindb: 4
Update: records affected: 1



GetName: 64908 STARLINK-34702

Hit Count: updated at: Sun, 08 Feb 2026 09:17:02 GMT